|
GPS 2-04 Rocket1 - Orbit
|
Mount Tamalpais State Park;
11:34:31
| Home | Info | Passes |
|
View from above orbital plane
|
View from above satellite
|
Ground track
|
The orbit data is extracted from the following two-line orbital elements,
1 20303U 89085B 13144.62124449 .00006892 00000-0 37697-3 0 5281
2 20303 035.6332 193.0404 0157964 176.0386 322.0878 15.03571957275272
| Epoch (UTC): | 24 May 2013 14:54:35 |
| Eccentricity: | 0.0157964 |
| inclination: | 35.6332° |
| perigee height: | 446 km |
| apogee height: | 665 km |
| right ascension of ascending node: | 193.0404° |
| argument of perigee: | 176.0386° |
| revolutions per day: | 15.03571957 |
| mean anomaly at epoch: | 322.0878° |
| orbit number at epoch: | 27527 |
The dashed part of the orbit path shows where the satellite is in the earth's shadow,
|
|